TimeMST,TemperatureF,Dew PointF,Humidity,Sea Level PressureIn,VisibilityMPH,Wind Direction,Wind SpeedMPH,Gust SpeedMPH,PrecipitationIn,Events,Conditions,WindDirDegrees,DateUTC
12:15 AM,33.8,15.8,48,29.79,10.0,West,26.5,33.4,N/A,,Scattered Clouds,260,2014-01-13 07:15:00
12:35 AM,33.8,15.8,48,29.79,10.0,West,16.1,33.4,N/A,,Partly Cloudy,260,2014-01-13 07:35:00
12:55 AM,33.8,15.8,48,29.80,10.0,West,17.3,33.4,N/A,,Scattered Clouds,260,2014-01-13 07:55:00
1:15 AM,33.8,15.8,48,29.81,10.0,West,13.8,31.1,N/A,,Scattered Clouds,270,2014-01-13 08:15:00
1:35 AM,35.6,15.8,44,29.81,10.0,West,18.4,29.9,N/A,,Partly Cloudy,270,2014-01-13 08:35:00
1:55 AM,35.6,15.8,44,29.81,10.0,West,10.4,28.8,N/A,,Mostly Cloudy,260,2014-01-13 08:55:00
2:15 AM,33.8,17.6,52,29.81,10.0,West,17.3,31.1,N/A,,Mostly Cloudy,270,2014-01-13 09:15:00
2:35 AM,33.8,17.6,52,29.81,10.0,WSW,15.0,26.5,N/A,,Mostly Cloudy,250,2014-01-13 09:35:00
2:55 AM,33.8,17.6,52,29.80,10.0,West,15.0,31.1,N/A,,Overcast,260,2014-01-13 09:55:00
3:15 AM,35.6,17.6,48,29.80,10.0,WSW,12.7,27.6,N/A,,Mostly Cloudy,240,2014-01-13 10:15:00
3:35 AM,35.6,17.6,48,29.79,10.0,SW,16.1,25.3,N/A,,Scattered Clouds,230,2014-01-13 10:35:00
3:55 AM,35.6,17.6,48,29.81,10.0,WSW,8.1,29.9,N/A,,Mostly Cloudy,250,2014-01-13 10:55:00
4:15 AM,35.6,17.6,48,29.79,10.0,West,16.1,28.8,N/A,,Scattered Clouds,260,2014-01-13 11:15:00
4:55 AM,37.4,17.6,45,29.80,10.0,West,10.4,35.7,N/A,,Scattered Clouds,260,2014-01-13 11:55:00
5:15 AM,37.4,19.4,48,29.81,10.0,West,17.3,29.9,N/A,,Mostly Cloudy,260,2014-01-13 12:15:00
5:35 AM,37.4,19.4,48,29.80,10.0,SW,5.8,-,N/A,,Mostly Cloudy,230,2014-01-13 12:35:00
5:55 AM,37.4,19.4,48,29.82,10.0,WSW,4.6,17.3,N/A,,Overcast,240,2014-01-13 12:55:00
6:15 AM,37.4,17.6,45,29.81,10.0,SSW,16.1,-,N/A,,Overcast,200,2014-01-13 13:15:00
6:35 AM,37.4,19.4,48,29.81,10.0,SW,16.1,21.9,N/A,,Mostly Cloudy,230,2014-01-13 13:35:00
6:55 AM,37.4,19.4,48,29.81,10.0,SW,17.3,24.2,N/A,,Partly Cloudy,230,2014-01-13 13:55:00
7:15 AM,37.4,19.4,48,29.80,10.0,WNW,5.8,18.4,N/A,,Clear,290,2014-01-13 14:15:00
7:35 AM,37.4,19.4,48,29.79,10.0,West,15.0,32.2,N/A,,Clear,260,2014-01-13 14:35:00
7:55 AM,39.2,19.4,45,29.79,10.0,WSW,27.6,35.7,N/A,,Clear,250,2014-01-13 14:55:00
8:15 AM,39.2,19.4,45,29.79,10.0,WSW,18.4,39.1,N/A,,Clear,250,2014-01-13 15:15:00
8:35 AM,39.2,21.2,49,29.80,10.0,WSW,28.8,42.6,N/A,,Clear,250,2014-01-13 15:35:00
8:55 AM,39.2,21.2,49,29.82,10.0,WSW,26.5,36.8,N/A,,Clear,250,2014-01-13 15:55:00
9:15 AM,39.2,19.4,45,29.81,10.0,WSW,23.0,41.4,N/A,,Clear,250,2014-01-13 16:15:00
9:35 AM,41.0,19.4,42,29.82,10.0,West,21.9,31.1,N/A,,Clear,260,2014-01-13 16:35:00
9:55 AM,42.8,21.2,42,29.82,10.0,West,18.4,27.6,N/A,,Clear,270,2014-01-13 16:55:00
10:15 AM,42.8,19.4,39,29.82,10.0,West,15.0,31.1,N/A,,Clear,270,2014-01-13 17:15:00
10:35 AM,42.8,21.2,42,29.82,10.0,NW,25.3,36.8,N/A,,Clear,310,2014-01-13 17:35:00
10:55 AM,42.8,21.2,42,29.83,10.0,NW,17.3,21.9,N/A,,Clear,310,2014-01-13 17:55:00
11:15 AM,44.6,19.4,37,29.83,10.0,West,19.6,29.9,N/A,,Clear,280,2014-01-13 18:15:00
11:35 AM,44.6,19.4,37,29.83,10.0,NW,15.0,28.8,N/A,,Clear,310,2014-01-13 18:35:00
11:55 AM,44.6,19.4,37,29.82,10.0,WNW,18.4,28.8,N/A,,Clear,300,2014-01-13 18:55:00
12:15 PM,42.8,19.4,39,29.81,10.0,West,19.6,28.8,N/A,,Clear,280,2014-01-13 19:15:00
12:35 PM,42.8,19.4,39,29.82,10.0,WNW,13.8,43.7,N/A,,Clear,290,2014-01-13 19:35:00
12:55 PM,42.8,21.2,42,29.80,10.0,WNW,20.7,32.2,N/A,,Clear,300,2014-01-13 19:55:00
1:15 PM,42.8,19.4,39,29.82,10.0,West,19.6,38.0,0.02,,Clear,260,2014-01-13 20:15:00
1:35 PM,42.8,19.4,39,29.82,10.0,West,17.3,26.5,0.02,,Clear,280,2014-01-13 20:35:00
1:55 PM,42.8,19.4,39,29.82,10.0,West,19.6,32.2,0.02,,Clear,260,2014-01-13 20:55:00
2:15 PM,42.8,19.4,39,29.84,10.0,West,18.4,31.1,N/A,,Clear,260,2014-01-13 21:15:00
2:35 PM,44.6,17.6,34,29.83,10.0,SW,18.4,26.5,N/A,,Clear,230,2014-01-13 21:35:00
2:55 PM,44.6,19.4,37,29.84,10.0,WSW,21.9,43.7,N/A,,Clear,250,2014-01-13 21:55:00
3:15 PM,44.6,19.4,37,29.83,10.0,SW,19.6,32.2,N/A,,Clear,230,2014-01-13 22:15:00
3:35 PM,44.6,17.6,34,29.85,10.0,WSW,19.6,35.7,N/A,,Clear,240,2014-01-13 22:35:00
3:55 PM,42.8,19.4,39,29.85,10.0,SSW,31.1,36.8,0.01,,Clear,210,2014-01-13 22:55:00
4:35 PM,42.8,17.6,36,29.87,10.0,South,16.1,38.0,N/A,,Clear,170,2014-01-13 23:35:00
4:55 PM,42.8,17.6,36,29.88,10.0,SSW,24.2,31.1,N/A,,Partly Cloudy,210,2014-01-13 23:55:00
5:15 PM,41.0,19.4,42,29.87,10.0,SSW,31.1,38.0,N/A,,Partly Cloudy,210,2014-01-14 00:15:00
5:35 PM,42.8,19.4,39,29.89,10.0,SW,18.4,34.5,N/A,,Scattered Clouds,230,2014-01-14 00:35:00
5:55 PM,41.0,21.2,45,29.88,10.0,SW,26.5,40.3,N/A,,Scattered Clouds,230,2014-01-14 00:55:00
6:15 PM,39.2,21.2,49,29.91,10.0,WSW,18.4,29.9,N/A,,Clear,240,2014-01-14 01:15:00
6:35 PM,39.2,21.2,49,29.91,10.0,WSW,13.8,27.6,N/A,,Clear,250,2014-01-14 01:35:00
6:55 PM,39.2,21.2,49,29.93,10.0,West,10.4,27.6,N/A,,Clear,260,2014-01-14 01:55:00
7:15 PM,39.2,21.2,49,29.93,10.0,West,10.4,18.4,N/A,,Clear,260,2014-01-14 02:15:00
7:35 PM,39.2,21.2,49,29.93,10.0,West,11.5,20.7,N/A,,Clear,260,2014-01-14 02:35:00
7:55 PM,39.2,21.2,49,29.94,10.0,West,11.5,18.4,N/A,,Clear,260,2014-01-14 02:55:00
8:15 PM,39.2,21.2,49,29.95,10.0,West,17.3,23.0,N/A,,Clear,260,2014-01-14 03:15:00
8:35 PM,39.2,21.2,49,29.95,10.0,West,10.4,23.0,N/A,,Partly Cloudy,280,2014-01-14 03:35:00
8:55 PM,39.2,21.2,49,30.00,10.0,NNW,20.7,38.0,N/A,,Mostly Cloudy,340,2014-01-14 03:55:00
9:15 PM,30.2,26.6,86,30.04,2.5,North,23.0,36.8,N/A,,Overcast,360,2014-01-14 04:15:00
9:35 PM,28.4,26.6,93,30.08,2.5,NNW,13.8,24.2,N/A,,Overcast,340,2014-01-14 04:35:00
9:55 PM,28.4,24.8,86,30.11,2.5,NNW,11.5,18.4,N/A,,Overcast,330,2014-01-14 04:55:00
10:15 PM,26.6,24.8,93,30.13,2.0,NNW,10.4,16.1,N/A,,Overcast,340,2014-01-14 05:15:00
10:35 PM,26.6,24.8,93,30.14,1.5,North,11.5,16.1,N/A,,Overcast,360,2014-01-14 05:35:00
10:55 PM,26.6,24.8,93,30.16,1.0,North,17.3,27.6,N/A,,Overcast,360,2014-01-14 05:55:00
11:15 PM,24.8,23.0,93,30.18,1.2,North,17.3,25.3,N/A,,Overcast,360,2014-01-14 06:15:00
11:35 PM,24.8,23.0,93,30.19,1.5,North,18.4,23.0,N/A,,Overcast,360,2014-01-14 06:35:00
11:55 PM,24.8,23.0,93,30.19,1.5,North,9.2,-,N/A,,Overcast,350,2014-01-14 06:55:00